STARLINK-3853 (52359 NORAD) Tracking and Keplerian Element Data
This shows tracking and keplerian element data for the satellite.
Feedback or suggestion? Click here.
Element | Value |
Catalog | 52359 |
Name | STARLINK-3853 |
Epoch Orbit | 130 |
Epoch Day | 167.08334491 |
Epoch Year | 2022 |
RAAN | 202.9976 |
Inclination | 53.2174 |
Eccentricity | 0.0001415 |
Argument of Perigee | 53.974 |
Mean Anonmoly | 103.2849 |
Mean Motion | 15.62277014 |
Decay Rate | -0.00714998 |
L1 | 1 52359U 22045AE 22167.08334491 -.00714998 00000+0 -86767-2 0 9992 |
L2 | 2 52359 53.2174 202.9976 0001415 53.9740 103.2849 15.62277014 1308 |
Live tracking and technical data element details for STARLINK-3853 (NORAD 52359). STARLINK-3853 can be tracked NOW for your location showing map with azimuth and elevation plus other details from your city location.
Track the satellite on the map from your city or location and see movement details for azimuth, elevation, latitude, longitude, range, height, and movement on the map or in text.
IsCatalogInMostPopularTable: catalog: 52359, numindb: 3
Update: records affected: 1
GetName: 52359 STARLINK-3853
Hit Count: updated at: Sat, 25 Jun 2022 04:27:17 GMT